RH
12 11 9 15 16 17 18 18 16 20 53 27 29 28 31 37 42 40 36 36 41 33 24 23 18 13 8 7 6 5 8 6 5 9 16 26 26 29 26 12 12 11 10 11
10 7 11 14 15 15 16 17 22 25 29 32 33 35 42 45 44 39 37 41 41 33 21 17 12 8 7 6 6 6 6 6 14 16 19 19 17 14 14 12 13 14 14 13
11 9 15 14 16 18 21 31 32 42 68 73 45 42 40 45 45 34 43 42 37 26 15 11 9 8 8 7 6 8 8 16 24 26 22 14 12 13 19 17 17 16 16 15
15 14 15 16 17 20 25 29 35 40 49 56 59 47 48 49 40 34 35 38 28 18 12 9 8 9 10 10 10 9 10 15 26 25 14 14 17 18 21 22 21 18 14 11
16 18 20 21 27 36 33 30 35 54 62 61 61 63 52 48 39 31 30 27 22 17 13 10 9 12 15 18 16 13 11 16 23 16 18 25 25 21 18 16 11 10 10 10
26 26 27 26 27 28 26 28 50 88 90 70 68 62 45 50 48 33 24 22 18 14 13 11 11 15 20 19 17 16 17 19 19 30 28 26 26 22 16 10 10 10 11 12
29 40 28 25 30 31 28 38 63 90 90 67 65 52 45 47 48 31 21 22 24 17 14 13 16 18 20 23 21 21 19 17 18 25 26 32 28 14 15 14 13 13 12 10
25 33 29 26 36 36 35 70 92 79 76 62 78 47 52 49 38 38 26 21 16 17 20 19 24 27 30 30 26 25 22 20 21 28 37 30 19 21 21 17 14 13 12 9
26 26 29 38 50 62 70 71 59 58 73 69 65 67 53 49 35 30 36 23 21 23 24 26 26 32 36 36 33 32 29 30 37 32 23 23 24 26 22 18 16 14 10 8
46 43 43 57 79 78 85 95 92 81 74 72 57 54 48 39 29 40 46 20 21 25 28 30 34 36 37 43 44 44 46 46 46 30 20 19 28 28 25 22 21 11 8 9
59 64 62 68 57 62 65 85 90 86 72 70 68 57 47 39 22 32 52 35 34 35 30 29 29 29 29 34 39 53 53 54 48 24 21 23 30 32 33 28 27 13 9 9
98 99 90 74 80 72 65 63 94 91 71 66 69 56 41 38 35 37 30 39 46 37 32 31 32 31 29 23 29 51 57 61 42 30 25 25 39 36 40 39 35 23 12 10
87 86 83 86 77 72 57 73 83 84 74 54 57 40 41 40 39 33 40 43 34 36 37 35 31 26 26 44 55 60 70 62 45 31 27 40 50 44 38 50 44 42 21 19
98 87 76 62 56 76 73 73 75 77 65 57 42 40 37 34 45 52 41 40 36 46 45 37 39 54 54 64 62 75 68 45 31 32 42 63 62 54 55 82 69 57 38 28
95 72 76 84 100 98 98 97 86 77 64 56 43 38 38 86 60 52 38 26 25 23 24 38 49 60 45 58 66 59 38 34 39 42 68 58 50 55 67 90 67 61 46 37
95 78 100 100 99 96 93 80 83 76 63 53 44 37 54 53 46 44 39 82 93 66 78 56 51 61 73 75 54 44 41 40 41 84 75 62 66 74 100 84 94 79 56 77
99 97 100 94 100 97 97 52 94 80 67 59 52 47 53 55 53 41 42 93 40 44 88 93 74 68 60 54 56 55 47 52 81 80 78 80 92 100 100 99 96 91 98 88
95 93 98 97 96 96 64 72 87 95 78 78 67 57 57 49 47 40 42 57 53 64 69 69 69 68 63 65 52 58 72 91 94 82 91 80 97 100 100 100 100 100 99 100
95 100 98 96 97 93 85 92 91 99 82 84 77 66 59 50 46 46 45 53 88 60 64 66 78 85 71 54 63 84 100 100 91 100 100 100 100 100 100 100 98 99 100 100
99 99 99 97 98 93 78 98 97 99 68 75 69 66 64 63 64 50 45 54 75 74 82 84 85 68 73 85 99 100 99 88 82 100 100 100 100 100 100 100 100 100 100 89
98 99 97 98 93 80 67 90 95 91 57 68 69 69 69 52 62 39 35 45 71 81 90 86 83 75 78 90 92 84 76 100 100 98 100 100 100 100 100 100 100 97 70 52
91 98 96 96 99 75 78 92 85 74 78 84 79 70 52 45 41 41 43 67 82 75 54 53 92 88 65 68 76 86 99 83 97 100 100 100 100 100 99 92 67 56 53 49
100 89 96 100 90 85 75 71 76 75 60 65 77 50 48 41 51 93 77 58 52 46 60 94 97 92 83 66 70 86 100 100 100 100 100 99 98 79 58 51 49 48 47 47
100 100 99 100 81 92 90 88 74 65 73 65 58 44 55 83 79 74 53 56 64 72 83 69 48 48 61 74 85 67 88 100 100 92 77 57 45 43 41 41 40 43 46 46
98 97 100 100 95 97 93 79 97 87 74 60 64 72 77 70 62 67 65 60 69 81 70 55 36 44 51 69 93 82 99 69 55 38 33 31 28 27 26 23 28 38 43 53
77 96 100 97 98 100 82 76 93 80 67 65 63 75 69 63 58 61 79 74 50 41 45 54 64 72 88 89 76 79 43 27 20 14 12 12 13 14 14 12 12 25 50 54
Wind_Speed
45 47 47 39 39 39 37 41 40 35 29 38 45 42 34 39 44 49 43 40 37 34 33 29 31 32 32 29 28 25 23 23 20 18 20 22 25 26 27 28 31 35 38 39
51 51 43 41 43 45 42 39 36 35 35 38 47 48 42 41 43 48 40 37 34 33 30 30 31 31 29 28 24 23 22 22 20 23 23 25 26 26 29 34 37 38 40 44
52 47 43 46 44 47 40 39 37 39 44 45 50 52 50 47 43 44 33 33 31 31 30 30 29 29 27 26 25 24 24 24 25 26 27 26 28 30 33 37 42 45 47 49
51 49 48 49 46 46 42 39 42 45 46 50 51 58 48 46 44 40 33 31 32 30 30 29 28 28 27 27 25 25 26 27 29 30 29 29 30 35 39 42 45 49 48 47
51 50 49 47 47 47 45 45 46 47 48 49 51 51 48 42 43 40 32 29 29 29 29 28 29 29 28 27 27 28 29 30 31 31 31 33 37 41 43 43 44 43 43 44
54 56 55 56 52 49 49 49 46 51 43 53 49 41 41 40 38 41 41 26 28 28 27 29 30 30 30 29 30 31 32 31 28 29 34 39 43 47 47 44 44 44 44 43
60 63 60 57 54 52 52 51 49 52 47 49 40 46 43 38 36 41 44 32 26 27 28 29 29 31 31 31 32 33 35 36 38 38 43 48 49 44 46 46 44 42 44 46
64 66 66 60 53 51 52 55 51 51 49 49 45 46 37 41 37 38 38 27 25 27 28 29 30 32 33 34 35 37 39 42 43 45 47 45 45 47 45 44 44 46 46 46
63 63 62 62 61 60 63 58 50 52 52 56 55 50 47 40 41 40 31 22 24 27 29 33 34 35 36 35 36 39 42 44 45 43 45 44 45 46 48 47 47 45 43 37
66 66 63 64 67 68 67 64 58 56 56 53 54 50 43 43 45 39 32 23 27 29 33 35 36 37 35 36 39 42 44 45 46 47 46 46 48 48 50 52 43 38 37 39
70 67 69 65 74 68 61 53 54 54 54 53 50 49 44 39 44 38 37 25 26 29 32 34 37 37 38 39 42 45 46 49 49 47 50 49 48 49 49 49 46 43 43 44
70 76 77 75 70 64 62 53 51 57 56 47 45 46 48 40 37 37 35 31 30 31 35 39 40 42 42 43 45 47 50 52 52 51 54 56 52 55 53 49 49 49 50 49
49 60 61 61 61 63 64 63 56 54 50 49 49 48 43 43 44 40 36 34 36 38 40 42 42 44 44 46 50 51 51 54 55 57 59 56 56 58 58 54 53 52 54 54
46 50 52 53 53 57 58 58 53 51 52 49 48 42 37 37 35 37 36 39 41 41 43 46 44 46 49 49 53 53 54 57 58 61 62 58 58 58 59 58 57 58 58 58
53 52 54 53 50 52 52 51 48 52 50 50 40 39 29 32 34 33 36 40 43 46 48 48 45 49 51 53 56 54 55 60 62 65 61 59 56 61 62 61 59 59 58 57
43 46 50 53 50 55 52 52 53 50 47 47 42 41 32 31 33 39 41 36 44 48 51 49 52 52 55 56 58 54 60 64 67 63 60 60 61 64 64 57 59 57 54 56
41 41 50 53 48 55 44 52 47 49 49 46 46 37 28 35 39 40 43 44 51 51 51 51 49 49 56 61 59 60 64 65 62 58 59 62 64 67 65 61 59 59 57 65
47 45 50 53 55 56 54 54 48 47 51 44 41 37 37 38 42 40 47 50 51 52 49 57 59 61 63 64 60 65 64 62 60 58 60 64 66 70 71 66 60 57 64 70
46 55 55 63 65 63 58 57 50 40 40 34 37 40 42 40 42 39 44 50 53 56 56 58 62 65 66 61 61 62 59 58 59 60 64 70 72 71 64 60 58 65 67 66
55 53 68 61 55 58 52 47 44 42 48 38 42 42 40 39 45 41 47 51 56 58 60 66 66 63 64 61 60 58 58 58 56 65 69 66 60 66 64 63 67 68 67 64
55 61 57 60 59 55 48 55 47 46 46 48 42 34 32 40 48 51 53 57 61 62 61 64 67 64 59 57 57 57 56 64 63 68 66 67 65 62 64 68 70 69 66 62
58 60 61 65 52 58 52 49 53 52 53 45 45 40 45 50 52 54 55 58 61 64 64 60 55 53 52 53 54 56 57 61 66 69 69 68 69 70 70 69 66 61 55 53
71 62 64 60 55 48 52 50 40 42 43 38 43 50 52 55 54 57 58 61 65 62 55 53 54 56 54 54 55 57 60 63 65 65 67 69 71 69 64 60 55 50 48 47
63 54 61 60 59 55 52 46 48 44 43 44 51 56 53 55 56 60 60 55 53 51 51 51 50 51 53 56 59 59 62 63 65 68 70 70 68 65 61 55 48 45 45 43
87 78 70 67 68 69 47 41 50 45 48 53 53 52 53 56 53 51 51 51 51 51 52 52 52 54 56 59 61 61 62 63 65 64 63 62 60 57 55 50 45 44 41 38
77 77 65 58 47 50 48 46 48 49 52 56 56 52 48 46 46 47 47 45 45 48 50 52 54 56 59 62 61 64 60 60 59 58 58 57 56 53 48 43 42 42 37 30
Wind_Direction
238 240 242 245 248 247 244 246 254 257 247 267 281 269 275 281 286 284 288 288 284 286 291 289 289 290 292 292 291 292 295 294 293 294 294 296 296 299 305 311 316 321 324 320
239 243 243 242 244 245 244 245 252 256 262 267 267 279 285 286 283 282 284 282 279 284 290 288 289 291 291 291 292 289 289 288 284 283 285 289 292 297 306 314 319 319 319 318
239 241 238 239 240 243 244 253 251 257 264 269 272 274 279 284 283 285 283 279 280 282 290 289 289 289 287 286 285 287 285 278 275 277 279 282 290 300 308 311 312 314 313 312
236 238 236 235 239 243 249 250 250 261 266 269 274 280 282 286 287 280 281 279 281 286 289 288 287 284 281 282 287 287 282 273 273 274 277 288 295 298 302 304 305 307 307 307
238 239 240 240 243 250 251 247 260 271 272 271 269 276 278 280 278 282 283 277 285 286 286 284 283 280 282 286 287 286 279 272 272 278 288 293 297 301 303 305 305 304 301 301
237 241 239 244 242 247 248 250 262 266 272 269 267 274 273 276 275 279 281 286 285 286 282 281 281 281 283 286 286 283 276 275 278 289 295 301 306 304 303 303 305 305 297 295
235 243 243 243 246 247 247 253 264 267 266 275 277 277 276 270 264 278 285 294 288 284 280 278 278 281 284 285 281 276 274 274 274 282 292 297 300 299 300 304 301 294 290 292
239 241 245 243 252 256 256 260 261 265 269 276 277 272 273 265 272 273 281 286 278 276 275 274 277 281 282 282 280 277 278 278 281 289 295 296 299 300 301 290 289 289 295 293
244 242 243 248 250 252 258 258 266 259 259 265 269 267 267 270 275 276 281 283 270 271 269 273 278 279 280 283 281 278 278 281 285 293 297 297 299 301 295 294 292 296 297 294
242 245 244 249 254 254 258 266 260 255 258 260 267 266 265 277 277 279 278 280 272 268 272 277 278 279 283 282 279 277 279 280 286 298 302 303 299 299 296 292 294 292 289 286
244 243 248 245 255 260 259 251 258 260 256 261 259 263 268 257 268 276 278 277 270 267 271 274 276 281 282 283 283 279 277 279 286 299 303 303 299 297 292 285 288 285 284 284
246 246 248 252 258 259 261 256 258 255 257 257 259 258 259 262 266 269 277 279 274 271 273 275 277 279 282 283 282 277 278 283 296 301 303 301 296 295 292 286 283 283 280 282
234 235 240 244 245 245 248 251 252 251 252 252 249 255 249 261 265 267 268 273 277 275 277 277 278 282 280 278 279 278 278 289 298 298 298 294 295 294 293 289 285 286 281 280
235 237 240 248 252 252 254 256 253 249 249 249 254 256 256 256 253 263 271 276 275 274 276 280 282 277 276 276 276 277 285 291 295 293 293 293 294 293 293 291 287 287 285 285
231 237 240 242 242 247 248 248 247 245 247 247 251 251 248 249 264 271 271 277 279 281 279 277 276 274 276 275 277 283 295 292 292 291 291 292 293 293 295 292 285 287 289 291
229 236 238 237 233 234 244 241 243 242 239 244 243 247 245 258 258 270 279 272 275 279 281 281 278 279 278 280 282 293 292 292 290 290 291 295 296 296 297 288 286 289 291 291
232 236 236 232 227 226 226 241 237 235 239 243 243 245 253 262 267 273 269 263 272 276 278 272 276 279 282 283 294 295 291 290 290 290 292 292 294 296 293 285 284 286 292 292
249 250 225 225 224 211 228 231 238 233 237 232 238 241 259 269 267 267 266 268 272 273 269 273 279 277 281 293 295 291 290 288 289 289 290 292 294 293 293 288 289 287 286 289
239 235 222 223 228 227 225 225 225 231 235 240 253 261 276 271 263 270 269 271 269 273 271 273 278 287 293 293 285 283 285 286 289 287 281 287 287 286 286 286 285 286 290 295
210 214 219 226 220 226 225 228 233 249 241 256 275 276 273 264 264 275 270 270 266 269 274 278 282 285 286 282 282 282 285 286 285 277 272 274 279 291 290 287 285 291 296 301
216 215 229 228 234 237 233 234 237 257 262 277 278 268 266 265 266 275 274 272 270 272 276 281 284 285 281 279 279 281 284 280 280 282 283 284 286 288 286 288 292 298 297 293
235 237 235 226 230 234 235 247 257 271 278 279 271 264 279 280 276 272 268 268 272 275 279 280 275 275 277 278 278 279 278 278 279 279 281 284 286 287 289 292 294 292 290 288
225 240 247 234 236 248 255 265 267 271 276 262 261 270 276 278 273 270 272 276 279 279 279 277 275 278 283 283 283 283 283 282 281 282 285 288 292 294 293 292 291 289 286 287
236 231 232 244 251 261 273 276 280 274 262 263 269 279 276 269 269 274 278 276 277 278 280 283 282 281 283 284 284 285 288 288 290 292 294 295 293 291 289 290 288 285 285 286
241 241 247 257 266 270 265 269 256 249 263 275 277 274 273 275 275 274 275 277 278 280 282 282 283 284 283 284 286 288 290 293 293 293 291 289 287 285 284 283 281 280 279 283
242 245 254 258 255 253 256 252 244 271 276 274 275 276 273 271 274 275 275 276 278 279 280 281 282 283 286 287 285 290 293 291 292 290 288 287 287 287 290 289 276 274 276 278